TimeEST,TemperatureF,Dew PointF,Humidity,Sea Level PressureIn,VisibilityMPH,Wind Direction,Wind SpeedMPH,Gust SpeedMPH,PrecipitationIn,Events,Conditions,WindDirDegrees,DateUTC
12:43 AM,57.2,53.6,88,30.19,5.0,NNW,17.3,-,0.02,Rain,Heavy Rain,330,2012-11-13 05:43:00
12:52 AM,55.0,51.1,86,30.22,4.0,NW,26.5,34.5,0.06,Rain,Rain,320,2012-11-13 05:52:00
1:52 AM,48.9,45.0,86,30.23,6.0,North,18.4,28.8,0.18,Rain,Rain,350,2012-11-13 06:52:00
1:59 AM,48.2,44.6,87,30.24,5.0,North,20.7,31.1,0.01,Rain,Rain,350,2012-11-13 06:59:00
2:52 AM,48.9,44.1,83,30.25,10.0,NNW,15.0,-,0.03,Rain,Light Rain,340,2012-11-13 07:52:00
3:52 AM,48.0,43.0,83,30.27,10.0,North,16.1,27.6,0.01,,Overcast,350,2012-11-13 08:52:00
4:52 AM,46.9,42.1,83,30.30,10.0,North,11.5,-,N/A,,Overcast,350,2012-11-13 09:52:00
5:52 AM,45.0,39.9,82,30.32,5.0,North,19.6,24.2,0.04,,Light Drizzle,350,2012-11-13 10:52:00
6:52 AM,44.1,41.0,89,30.35,5.0,NNW,10.4,-,0.03,Rain,Light Rain,330,2012-11-13 11:52:00
7:09 AM,44.6,41.0,87,30.36,2.5,NNW,10.4,-,0.00,Rain,Rain,340,2012-11-13 12:09:00
7:24 AM,44.6,41.0,87,30.37,2.5,North,13.8,-,0.02,Rain,Light Rain,350,2012-11-13 12:24:00
7:30 AM,44.6,41.0,87,30.36,3.0,North,10.4,-,0.04,Rain,Rain,350,2012-11-13 12:30:00
7:41 AM,44.6,41.0,87,30.37,6.0,North,12.7,-,0.05,Rain,Light Rain,350,2012-11-13 12:41:00
7:52 AM,44.1,39.9,85,30.38,4.0,North,13.8,-,0.05,Rain,Light Rain,350,2012-11-13 12:52:00
8:29 AM,44.6,39.2,81,30.40,6.0,North,13.8,-,0.02,Rain,Light Rain,360,2012-11-13 13:29:00
8:52 AM,44.1,39.0,82,30.40,6.0,North,13.8,-,0.05,Rain,Light Rain,360,2012-11-13 13:52:00
9:52 AM,43.0,36.0,76,30.42,9.0,North,16.1,-,0.03,Rain,Light Rain,350,2012-11-13 14:52:00
10:52 AM,45.0,35.1,68,30.42,10.0,North,10.4,-,0.02,,Mostly Cloudy,350,2012-11-13 15:52:00
11:52 AM,46.0,33.1,61,30.40,10.0,NNW,11.5,-,N/A,,Mostly Cloudy,340,2012-11-13 16:52:00
12:52 PM,46.9,30.9,54,30.38,10.0,NNW,10.4,20.7,N/A,,Scattered Clouds,330,2012-11-13 17:52:00
1:52 PM,50.0,30.9,48,30.36,10.0,NNW,16.1,-,N/A,,Scattered Clouds,340,2012-11-13 18:52:00
2:52 PM,51.1,28.9,43,30.37,10.0,NNW,12.7,-,N/A,,Partly Cloudy,330,2012-11-13 19:52:00
3:52 PM,50.0,27.0,41,30.38,10.0,NNW,12.7,18.4,N/A,,Partly Cloudy,330,2012-11-13 20:52:00
4:52 PM,46.9,28.0,48,30.39,10.0,North,15.0,19.6,N/A,,Scattered Clouds,360,2012-11-13 21:52:00
5:52 PM,46.0,28.0,50,30.43,10.0,NNW,11.5,-,N/A,,Partly Cloudy,340,2012-11-13 22:52:00
6:52 PM,44.1,26.1,49,30.45,10.0,NNW,15.0,-,N/A,,Clear,340,2012-11-13 23:52:00
7:52 PM,43.0,25.0,49,30.47,10.0,NNW,15.0,-,N/A,,Clear,330,2012-11-14 00:52:00
8:52 PM,42.1,25.0,51,30.48,10.0,NNW,15.0,-,N/A,,Clear,330,2012-11-14 01:52:00
9:52 PM,39.9,25.0,55,30.49,10.0,NNW,13.8,-,N/A,,Partly Cloudy,330,2012-11-14 02:52:00
10:52 PM,39.9,25.0,55,30.49,10.0,NNW,12.7,-,N/A,,Partly Cloudy,330,2012-11-14 03:52:00
11:52 PM,39.0,25.0,57,30.50,10.0,NNW,11.5,-,N/A,,Clear,330,2012-11-14 04:52:00